This is the latest recevied weather packets stored in our database for station/object EA6AMI-5. If no packets are shown the sender has not sent any weather packets the latest 1 day(s).
| Time | Temp. | Humidity | Pressure | Rain* | Wind** | Luminosity | Snow |
|---|---|---|---|---|---|---|---|
| 1777984023 | 21.11° C | 59% | 1011.6 hPa | 0 mm | 2.68 m/s, 206° | 235 W/m² | - |
| 1777983483 | 21.11° C | 60% | 1011.7 hPa | 0 mm | 3.13 m/s, 190° | 893 W/m² | - |
| 1777982943 | 21.11° C | 59% | 1011.7 hPa | 0 mm | 2.68 m/s, 196° | 853 W/m² | - |
| 1777982403 | 21.11° C | 58% | 1011.6 hPa | 0 mm | 2.24 m/s, 193° | 537 W/m² | - |
| 1777982044 | 21.11° C | 60% | 1011.7 hPa | 0 mm | 2.24 m/s, 194° | 957 W/m² | - |
| 1777981503 | 20.56° C | 58% | 1011.8 hPa | 0 mm | 2.68 m/s, 185° | 947 W/m² | - |
| 1777980964 | 20.56° C | 60% | 1012 hPa | 0 mm | 2.68 m/s, 179° | 979 W/m² | - |
| 1777980424 | 20.56° C | 59% | 1012.1 hPa | 0 mm | 3.13 m/s, 184° | 897 W/m² | - |
| 1777979883 | 20.56° C | 61% | 1012.3 hPa | 0 mm | 2.68 m/s, 179° | 928 W/m² | - |
| 1777979344 | 20° C | 64% | 1012.3 hPa | 0 mm | 2.68 m/s, 193° | 874 W/m² | - |
| 1777978804 | 20.56° C | 62% | 1012.3 hPa | 0 mm | 2.68 m/s, 192° | 223 W/m² | - |
| 1777978444 | 20° C | 63% | 1012.1 hPa | 0 mm | 3.13 m/s, 184° | 924 W/m² | - |
| 1777977903 | 19.44° C | 66% | 1012.2 hPa | 0 mm | 3.13 m/s, 217° | 916 W/m² | - |
| 1777977363 | 19.44° C | 67% | 1012.2 hPa | 0 mm | 2.68 m/s, 214° | 927 W/m² | - |
| 1777976823 | 19.44° C | 66% | 1012.3 hPa | 0 mm | 2.68 m/s, 192° | 274 W/m² | - |
| 1777976283 | 19.44° C | 65% | 1012.1 hPa | 0 mm | 2.24 m/s, 186° | 867 W/m² | - |
| 1777975743 | 20° C | 64% | 1012.2 hPa | 0 mm | 3.13 m/s, 185° | 143 W/m² | - |
| 1777975204 | 19.44° C | 65% | 1012.3 hPa | 0 mm | 2.68 m/s, 192° | 835 W/m² | - |
| 1777974843 | 19.44° C | 65% | 1012.4 hPa | 0 mm | 2.68 m/s, 196° | 707 W/m² | - |
| 1777974303 | 18.89° C | 68% | 1012.3 hPa | 0 mm | 2.24 m/s, 206° | 776 W/m² | - |
* Rain latest hour (hover to see other rain measurements)
** Current wind speed in m/s (hover to see current wind gust speed)